"startDT [UTC]","vpos","CH4 [ppm]","stdev(CH4) [ppm]","CO2 [ppm]","stdev(CO2) [ppm]","H2O_reported [%]","stdev(H2O_reported)","CavityPressure [torr]","CavityTemp [C]","OutletValve","CH4_dry [ppm]","CO2_dry [ppm]","DasTemp [C]","EtalonTemp [C]","WarmBoxTemp [C]","MPVPosition","T_ECpre [C]","T_EC1 [C]","T_EC2 [C]","p_inlet [hPa]","p_in [hPa]","p_out [hPa]","T_inlet [C]","RH_inlet [%]","dwpt_inlet [C]","T_vent [C]","RH_vent [%]","dwpt_vent [C]","flow_vent [l min-1]","flow_inlet [l min-1]","dwpt_sample [C]","T_room [C]"
2015-12-01 00:00:00,3.0,1.88142,0.01836,399.254,2.710,0.0206,0.0282,139.991,45.000,31436.90640,1.88384,399.514,32.756,45.070,45.000,0.00,0.08,-272.76,-272.80,-3,502,-941,18.7,3.4,-26.2,18.9,3.4,-25.7,5.73,1.85,-16.6,25.1
2015-12-01 00:01:00,3.0,1.87688,0.00042,397.055,0.050,0.0053,0.0017,139.998,45.000,31431.31003,1.87700,397.082,32.756,45.070,45.000,0.00,0.08,-272.75,-272.80,-3,502,-942,18.7,3.4,-26.1,18.9,3.4,-25.8,5.73,2.14,-16.6,25.1
2015-12-01 00:02:00,3.0,1.87664,0.00038,397.328,0.113,0.0052,0.0018,140.000,45.000,31431.06100,1.87673,397.347,32.756,45.070,45.000,0.00,0.08,-272.76,-272.81,-4,502,-942,18.7,3.4,-26.1,18.9,3.4,-25.8,5.73,1.94,-16.6,25.1
2015-12-01 00:03:00,3.0,1.87651,0.00042,397.525,0.033,0.0061,0.0013,140.000,45.000,31430.30502,1.87662,397.553,32.788,45.070,45.000,0.00,0.08,-272.74,-272.81,-3,502,-942,18.7,3.4,-26.1,18.9,3.4,-25.7,5.73,1.82,-16.6,25.1
2015-12-01 00:04:00,3.0,1.87650,0.00043,397.564,0.026,0.0047,0.0019,140.001,45.000,31429.02276,1.87657,397.586,32.779,45.070,45.000,0.00,0.08,-272.75,-272.80,-3,502,-942,18.8,3.4,-25.8,18.9,3.5,-25.6,5.73,2.16,-16.6,25.1
2015-12-01 00:05:00,3.0,1.87666,0.00032,397.574,0.037,0.0045,0.0020,140.000,45.000,31427.87537,1.87674,397.596,32.754,45.070,45.000,0.00,0.08,-272.75,-272.81,-4,502,-942,18.8,3.5,-25.6,18.9,3.6,-25.3,5.73,1.89,-16.6,25.1
2015-12-01 00:06:00,3.0,1.87670,0.00038,397.582,0.028,0.0033,0.0016,139.998,45.000,31426.99398,1.87675,397.598,32.750,45.070,45.000,0.00,0.08,-272.75,-272.81,-3,502,-942,18.8,3.6,-25.3,18.9,3.6,-25.1,5.73,1.86,-16.6,25.1
2015-12-01 00:07:00,3.0,1.87684,0.00033,397.607,0.035,0.0027,0.0018,140.000,45.000,31426.60917,1.87689,397.618,32.752,45.070,45.000,0.00,0.08,-272.76,-272.81,-3,503,-942,18.9,3.7,-25.0,19.0,3.7,-24.8,5.73,2.16,-16.6,25.1
2015-12-01 00:08:00,3.0,1.87682,0.00046,397.583,0.028,0.0021,0.0018,140.000,45.000,31428.08036,1.87686,397.594,32.750,45.070,45.000,0.00,0.08,-272.74,-272.81,-4,503,-942,18.9,3.8,-24.8,19.0,3.8,-24.5,5.73,1.85,-16.6,25.1
2015-12-01 00:09:00,3.0,1.87667,0.00040,397.563,0.030,0.0024,0.0019,139.999,45.000,31430.84417,1.87671,397.574,32.750,45.070,45.000,0.00,0.08,-272.76,-272.81,-4,503,-942,18.9,3.8,-24.6,19.0,3.9,-24.4,5.73,1.91,-16.6,25.1
2015-12-01 00:10:00,3.0,1.87668,0.00039,397.570,0.035,0.0020,0.0023,139.999,45.000,31431.91984,1.87673,397.580,32.752,45.070,45.000,0.00,0.08,-272.76,-272.81,-3,503,-942,19.0,3.8,-24.6,19.0,3.9,-24.3,5.73,2.15,-16.6,25.1
2015-12-01 00:11:00,3.0,1.87640,0.00034,397.571,0.028,0.0012,0.0017,139.995,45.000,31434.23780,1.87640,397.577,32.769,45.070,45.000,0.00,0.08,-272.74,-272.80,-3,504,-942,19.0,3.8,-24.5,19.1,3.9,-24.3,5.73,1.81,-16.6,25.2
2015-12-01 00:12:00,3.0,1.87669,0.00033,397.583,0.021,0.0011,0.0021,139.999,45.000,31437.58033,1.87670,397.588,32.753,45.070,45.000,0.00,0.08,-272.76,-272.80,-4,504,-942,19.0,3.8,-24.5,19.1,3.9,-24.3,5.73,1.96,-16.6,25.2
2015-12-01 00:13:00,3.0,1.87663,0.00038,397.570,0.031,0.0012,0.0016,140.001,45.001,31440.94045,1.87672,397.576,32.759,45.070,45.000,0.00,0.08,-272.76,-272.81,-3,504,-942,19.1,3.8,-24.5,19.1,3.9,-24.3,5.73,2.13,-16.6,25.2
2015-12-01 00:14:00,3.0,1.87637,0.00045,397.580,0.027,0.0014,0.0019,140.000,45.000,31442.13484,1.87636,397.585,32.758,45.070,45.000,0.00,0.08,-272.75,-272.80,-3,504,-942,19.1,3.8,-24.5,19.2,3.9,-24.3,5.73,1.78,-16.6,25.2
2015-12-01 00:15:00,3.0,1.87662,0.00041,397.575,0.030,-0.0001,0.0016,139.996,45.001,31443.14549,1.87662,397.576,32.777,45.070,45.000,0.00,0.08,-272.76,-272.81,-4,505,-942,19.1,3.8,-24.5,19.2,3.9,-24.3,5.73,2.01,-16.6,25.2
2015-12-01 00:16:00,3.0,1.87640,0.00029,397.575,0.023,0.0010,0.0017,139.998,45.000,31447.11668,1.87642,397.580,32.757,45.070,45.000,0.00,0.08,-272.75,-272.81,-4,505,-942,19.2,3.7,-24.6,19.2,3.8,-24.3,5.73,2.09,-16.6,25.3
2015-12-01 00:17:00,3.0,1.87667,0.00043,397.577,0.033,0.0007,0.0017,140.001,45.000,31447.47930,1.87668,397.580,32.742,45.070,45.000,0.00,0.08,-272.75,-272.81,-3,505,-942,19.2,3.7,-24.7,19.3,3.8,-24.4,5.73,1.77,-16.6,25.3
2015-12-01 00:18:00,3.0,1.87649,0.00036,397.588,0.028,0.0003,0.0017,139.998,45.000,31447.00968,1.87652,397.589,32.722,45.070,45.000,0.00,0.08,-272.76,-272.81,-3,505,-942,19.3,3.7,-24.7,19.3,3.8,-24.4,5.73,2.07,-16.6,25.3
2015-12-01 00:19:00,3.0,1.87661,0.00034,397.572,0.029,0.0003,0.0015,139.997,45.000,31447.73715,1.87661,397.574,32.706,45.070,45.000,0.00,0.08,-272.75,-272.81,-4,505,-942,19.3,3.7,-24.7,19.3,3.8,-24.4,5.73,2.03,-16.6,25.3
2015-12-01 00:20:00,0.0,1.93096,0.02061,405.112,2.828,0.0797,0.0353,140.005,45.000,31529.55312,1.93036,405.345,32.743,45.070,45.000,0.00,0.09,-272.75,-272.81,-5,517,-942,19.4,3.6,-24.8,19.4,3.7,-24.5,5.73,1.88,-16.6,25.3
2015-12-01 00:21:00,0.0,1.93764,0.00073,406.234,0.037,0.1010,0.0018,139.999,45.000,31543.54081,1.93962,406.729,32.738,45.070,45.000,0.00,0.09,-272.76,-272.81,-4,518,-942,19.4,3.7,-24.7,19.4,3.8,-24.4,5.73,2.01,-16.6,25.3
2015-12-01 00:22:00,0.0,1.93631,0.00069,406.205,0.042,0.1035,0.0016,139.999,45.000,31547.85237,1.93835,406.713,32.701,45.070,45.000,0.00,0.08,-272.76,-272.81,-5,518,-942,19.4,3.7,-24.6,19.4,3.8,-24.3,5.73,2.16,-16.6,25.4
2015-12-01 00:23:00,0.0,1.93511,0.00024,406.143,0.031,0.1036,0.0016,140.001,45.000,31552.40985,1.93707,406.650,32.700,45.070,45.000,0.00,0.08,-272.75,-272.81,-5,519,-942,19.5,3.7,-24.6,19.5,3.8,-24.3,5.73,1.92,-16.6,25.4
2015-12-01 00:24:00,0.0,1.93625,0.00056,406.188,0.027,0.1030,0.0020,139.998,45.000,31556.16608,1.93820,406.690,32.733,45.070,45.000,0.00,0.09,-272.75,-272.81,-6,519,-942,19.5,3.7,-24.6,19.5,3.8,-24.3,5.73,1.83,-16.5,25.4
2015-12-01 00:25:00,0.0,1.93550,0.00047,406.164,0.024,0.1028,0.0018,139.999,45.000,31559.32329,1.93744,406.667,32.746,45.070,45.000,0.00,0.08,-272.76,-272.80,-5,519,-942,19.5,3.6,-24.7,19.5,3.8,-24.4,5.73,2.08,-16.5,25.4
2015-12-01 00:26:00,0.0,1.93550,0.00045,406.146,0.032,0.1026,0.0017,139.998,45.000,31560.19487,1.93746,406.648,32.764,45.070,45.000,0.00,0.08,-272.76,-272.81,-4,519,-942,19.5,3.6,-24.8,19.5,3.7,-24.4,5.73,2.12,-16.5,25.4
2015-12-01 00:27:00,0.0,1.93594,0.00057,406.190,0.031,0.1002,0.0019,139.999,45.000,31562.04708,1.93787,406.681,32.748,45.070,45.000,0.00,0.08,-272.75,-272.80,-5,520,-942,19.5,3.6,-25.0,19.5,3.7,-24.6,5.73,1.85,-16.5,25.4
2015-12-01 00:28:00,0.0,1.93529,0.00054,406.153,0.029,0.1001,0.0020,140.001,45.000,31564.85400,1.93721,406.643,32.726,45.070,45.000,0.00,0.08,-272.74,-272.79,-6,520,-942,19.6,3.5,-25.0,19.5,3.6,-24.7,5.73,1.89,-16.5,25.4
2015-12-01 00:29:00,0.0,1.93488,0.00037,406.165,0.027,0.1022,0.0013,140.000,45.000,31565.77069,1.93686,406.664,32.713,45.070,45.000,0.00,0.08,-272.76,-272.81,-5,520,-942,19.5,3.6,-24.9,19.5,3.7,-24.6,5.73,2.15,-16.5,25.4
2015-12-01 00:30:00,0.0,1.93493,0.00033,406.183,0.031,0.1037,0.0018,139.998,45.000,31566.50287,1.93689,406.690,32.738,45.070,45.000,0.00,0.08,-272.75,-272.82,-5,520,-942,19.5,3.6,-24.7,19.5,3.7,-24.4,5.73,2.03,-16.5,25.4
2015-12-01 00:31:00,0.0,1.93494,0.00044,406.140,0.033,0.1032,0.0022,140.001,45.000,31566.85204,1.93690,406.645,32.749,45.070,45.000,0.00,0.09,-272.74,-272.80,-5,520,-942,19.5,3.6,-24.7,19.5,3.7,-24.4,5.73,1.81,-16.5,25.5
2015-12-01 00:32:00,0.0,1.93484,0.00044,406.114,0.025,0.1045,0.0015,139.997,45.000,31567.10061,1.93685,406.625,32.754,45.070,45.000,0.00,0.09,-272.75,-272.81,-5,520,-942,19.5,3.7,-24.6,19.6,3.8,-24.3,5.73,2.00,-16.5,25.4
2015-12-01 00:33:00,0.0,1.93470,0.00035,406.105,0.032,0.1036,0.0017,140.001,45.000,31569.85297,1.93668,406.612,32.774,45.070,45.000,0.00,0.08,-272.75,-272.81,-6,520,-942,19.5,3.7,-24.6,19.6,3.8,-24.3,5.73,2.16,-16.5,25.5
2015-12-01 00:34:00,0.0,1.93521,0.00035,406.179,0.034,0.1013,0.0018,139.999,45.000,31568.02430,1.93714,406.675,32.766,45.070,45.000,0.00,0.09,-272.74,-272.81,-5,521,-941,19.5,3.6,-24.8,19.6,3.7,-24.4,5.73,1.91,-16.5,25.5
2015-12-01 00:35:00,0.0,1.93528,0.00043,406.163,0.026,0.1006,0.0020,140.001,45.000,31570.23636,1.93716,406.655,32.768,45.070,45.000,0.00,0.09,-272.75,-272.80,-4,520,-941,19.5,3.5,-25.0,19.6,3.7,-24.6,5.73,1.84,-16.5,25.5
2015-12-01 00:36:00,0.0,1.93524,0.00036,406.145,0.033,0.0983,0.0016,140.001,45.001,31571.43700,1.93713,406.627,32.758,45.070,45.000,0.00,0.08,-272.76,-272.81,-5,520,-942,19.5,3.5,-25.2,19.6,3.6,-24.8,5.73,2.11,-16.5,25.5
2015-12-01 00:37:00,0.0,1.93511,0.00032,406.172,0.039,0.0983,0.0014,139.997,45.001,31574.10792,1.93701,406.651,32.750,45.070,45.000,0.00,0.09,-272.75,-272.81,-6,520,-942,19.5,3.5,-25.3,19.6,3.6,-24.9,5.73,2.08,-16.5,25.5
2015-12-01 00:38:00,0.0,1.93508,0.00024,406.148,0.031,0.0978,0.0015,140.001,45.001,31575.73743,1.93694,406.627,32.750,45.070,45.000,0.00,0.08,-272.74,-272.81,-6,521,-941,19.5,3.5,-25.3,19.6,3.6,-24.9,5.73,1.82,-16.5,25.5
2015-12-01 00:39:00,0.0,1.93495,0.00049,406.143,0.041,0.0997,0.0019,139.999,45.001,31576.07909,1.93686,406.631,32.750,45.070,45.000,0.00,0.08,-272.75,-272.81,-5,521,-942,19.5,3.5,-25.2,19.6,3.6,-24.9,5.73,1.95,-16.5,25.5
2015-12-01 00:40:00,0.0,1.93510,0.00046,406.137,0.032,0.1014,0.0017,139.997,45.000,31574.53971,1.93700,406.633,32.749,45.070,45.000,0.00,0.08,-272.76,-272.81,-4,520,-941,19.4,3.6,-25.0,19.6,3.6,-24.7,5.73,2.16,-16.5,25.5
2015-12-01 00:41:00,0.0,1.93507,0.00052,406.141,0.039,0.1018,0.0020,139.996,45.000,31574.36376,1.93705,406.638,32.749,45.070,45.000,0.00,0.09,-272.74,-272.80,-5,521,-941,19.5,3.6,-24.9,19.6,3.7,-24.6,5.73,1.94,-16.5,25.5
2015-12-01 00:42:00,0.0,1.93484,0.00040,406.164,0.027,0.1010,0.0017,139.999,45.000,31575.20771,1.93674,406.658,32.753,45.070,45.000,0.00,0.08,-272.75,-272.80,-6,521,-941,19.4,3.6,-25.0,19.5,3.6,-24.7,5.73,1.83,-16.5,25.5
2015-12-01 00:43:00,0.0,1.93543,0.00040,406.167,0.029,0.1005,0.0009,140.000,44.999,31574.53472,1.93733,406.658,32.753,45.070,45.000,0.00,0.08,-272.76,-272.81,-5,521,-942,19.4,3.5,-25.1,19.5,3.6,-24.8,5.73,2.09,-16.5,25.5
2015-12-01 00:44:00,0.0,1.93581,0.00044,406.223,0.031,0.1020,0.0019,139.999,45.000,31574.53331,1.93773,406.723,32.756,45.070,45.000,0.00,0.09,-272.75,-272.81,-4,521,-942,19.4,3.6,-25.0,19.5,3.6,-24.7,5.73,2.10,-16.5,25.5
2015-12-01 00:45:00,0.0,1.93633,0.00036,406.236,0.034,0.1045,0.0016,139.999,44.999,31572.13515,1.93833,406.745,32.755,45.070,45.000,0.00,0.09,-272.74,-272.81,-5,521,-942,19.3,3.7,-24.8,19.5,3.7,-24.5,5.73,1.83,-16.5,25.5
2015-12-01 00:46:00,0.0,1.93525,0.00098,406.185,0.051,0.1036,0.0013,139.999,45.000,31573.63347,1.93729,406.695,32.751,45.070,45.000,0.00,0.08,-272.75,-272.81,-6,521,-942,19.3,3.7,-24.8,19.5,3.7,-24.4,5.73,1.94,-16.5,25.5
2015-12-01 00:47:00,0.0,1.93291,0.00056,406.083,0.034,0.1015,0.0020,139.999,45.000,31575.43531,1.93488,406.580,32.754,45.070,45.000,0.00,0.08,-272.75,-272.81,-5,521,-941,19.3,3.6,-24.9,19.5,3.7,-24.5,5.73,2.16,-16.5,25.5
2015-12-01 00:48:00,0.0,1.93261,0.00031,406.054,0.029,0.0998,0.0015,139.998,45.000,31576.08877,1.93452,406.543,32.769,45.070,45.000,0.00,0.08,-272.75,-272.81,-5,521,-941,19.3,3.5,-25.1,19.5,3.6,-24.7,5.73,1.95,-16.5,25.5
2015-12-01 00:49:00,0.0,1.93425,0.00114,406.103,0.061,0.0984,0.0016,140.000,45.000,31575.74846,1.93603,406.582,32.799,45.070,45.000,0.00,0.08,-272.75,-272.81,-5,520,-941,19.3,3.5,-25.3,19.5,3.6,-24.9,5.73,1.82,-16.5,25.5
2015-12-01 00:50:00,0.0,1.93558,0.00082,406.177,0.053,0.0980,0.0013,140.000,45.000,31572.86306,1.93745,406.657,32.809,45.070,45.000,0.00,0.08,-272.76,-272.80,-5,520,-942,19.3,3.5,-25.3,19.4,3.6,-24.9,5.73,2.09,-16.5,25.5
2015-12-01 00:51:00,0.0,1.93475,0.00064,406.130,0.038,0.0983,0.0019,139.997,45.000,31572.25645,1.93665,406.611,32.812,45.070,45.000,0.00,0.08,-272.75,-272.80,-6,520,-941,19.2,3.5,-25.3,19.4,3.6,-24.9,5.73,2.10,-16.5,25.5
2015-12-01 00:52:00,0.0,1.93513,0.00042,406.147,0.029,0.0993,0.0016,140.000,45.000,31572.43423,1.93700,406.632,32.813,45.070,45.000,0.00,0.08,-272.75,-272.80,-5,521,-942,19.2,3.5,-25.2,19.4,3.6,-25.0,5.73,1.83,-16.5,25.5
2015-12-01 00:53:00,0.0,1.93610,0.00036,406.194,0.030,0.1002,0.0013,139.999,45.000,31570.80976,1.93796,406.684,32.813,45.070,45.000,0.00,0.08,-272.76,-272.81,-4,520,-942,19.2,3.6,-25.1,19.4,3.6,-24.8,5.73,1.94,-16.5,25.5
2015-12-01 00:54:00,0.0,1.93753,0.00114,406.272,0.060,0.1012,0.0022,139.999,45.000,31573.90659,1.93940,406.764,32.807,45.070,45.000,0.00,0.08,-272.75,-272.80,-5,520,-942,19.2,3.6,-25.0,19.4,3.7,-24.8,5.73,2.16,-16.5,25.5
2015-12-01 00:55:00,0.0,1.93809,0.00094,406.292,0.050,0.1019,0.0013,140.000,45.000,31576.10240,1.94011,406.793,32.809,45.070,45.000,0.00,0.09,-272.74,-272.81,-6,520,-942,19.2,3.6,-25.0,19.4,3.7,-24.7,5.73,1.95,-16.5,25.5
2015-12-01 00:56:00,0.0,1.93606,0.00085,406.194,0.037,0.1013,0.0015,139.999,45.000,31575.15508,1.93796,406.690,32.810,45.070,45.000,0.00,0.08,-272.75,-272.81,-5,520,-942,19.2,3.6,-24.9,19.4,3.7,-24.6,5.73,1.82,-16.5,25.5
2015-12-01 00:57:00,0.0,1.93663,0.00058,406.192,0.033,0.1028,0.0012,139.998,45.000,31573.87788,1.93862,406.695,32.792,45.070,45.000,0.00,0.08,-272.75,-272.80,-4,520,-942,19.2,3.7,-24.9,19.3,3.7,-24.6,5.73,2.09,-16.5,25.5
2015-12-01 00:58:00,0.0,1.93788,0.00081,406.252,0.052,0.1022,0.0017,139.999,45.000,31574.56430,1.93974,406.749,32.761,45.070,45.000,0.00,0.08,-272.74,-272.80,-4,520,-942,19.2,3.6,-24.9,19.3,3.7,-24.6,5.73,2.11,-16.5,25.4
2015-12-01 00:59:00,0.0,1.93794,0.00061,406.249,0.039,0.1038,0.0020,140.001,45.000,31572.34412,1.93996,406.758,32.762,45.070,45.000,0.00,0.08,-272.75,-272.81,-5,520,-942,19.1,3.7,-24.8,19.3,3.7,-24.6,5.73,1.83,-16.5,25.5
2015-12-01 01:00:00,0.0,1.93716,0.00127,406.206,0.059,0.1045,0.0018,140.001,45.000,31572.96265,1.93927,406.719,32.783,45.071,45.001,0.00,0.08,-272.76,-272.81,-6,520,-942,19.1,3.7,-24.8,19.3,3.8,-24.5,5.73,1.93,-16.5,25.4
2015-12-01 01:01:00,0.0,1.93465,0.00059,406.075,0.038,0.1027,0.0018,139.999,45.000,31570.99341,1.93657,406.576,32.792,45.070,45.000,0.00,0.29,-271.18,-272.51,-5,520,-941,19.1,3.7,-24.8,19.3,3.7,-24.5,5.43,2.32,-21.6,25.5
2015-12-01 01:02:00,0.0,1.93462,0.00071,406.070,0.049,0.1020,0.0017,139.998,45.000,31571.95176,1.93662,406.571,32.761,45.070,45.000,0.00,0.09,-272.75,-272.82,-4,520,-942,19.1,3.7,-24.9,19.3,3.7,-24.6,5.73,1.97,-16.5,25.5
2015-12-01 01:03:00,0.0,1.93494,0.00039,406.072,0.036,0.1008,0.0016,140.000,45.000,31571.36832,1.93682,406.564,32.763,45.070,45.000,0.00,0.08,-272.75,-272.81,-5,520,-941,19.1,3.6,-25.0,19.3,3.7,-24.7,5.73,1.82,-16.5,25.4
2015-12-01 01:04:00,0.0,1.93486,0.00043,406.063,0.039,0.1013,0.0015,140.000,45.000,31571.83005,1.93680,406.556,32.798,45.070,45.000,0.00,0.09,-272.76,-272.80,-6,520,-942,19.1,3.6,-25.0,19.3,3.7,-24.8,5.73,2.08,-16.5,25.4
2015-12-01 01:05:00,0.0,1.93426,0.00089,406.042,0.056,0.1016,0.0020,139.998,45.000,31572.00947,1.93625,406.542,32.813,45.070,45.000,0.00,0.09,-272.75,-272.80,-5,520,-941,19.1,3.6,-25.0,19.3,3.7,-24.7,5.73,2.11,-16.4,25.4
2015-12-01 01:06:00,0.0,1.93349,0.00067,405.982,0.038,0.1020,0.0018,139.999,45.000,31570.63333,1.93546,406.481,32.813,45.070,45.000,0.00,0.08,-272.76,-272.81,-4,520,-942,19.0,3.7,-24.9,19.3,3.7,-24.7,5.73,1.83,-16.5,25.4
2015-12-01 01:07:00,0.0,1.93232,0.00057,405.971,0.038,0.1027,0.0014,139.999,45.000,31571.28453,1.93424,406.471,32.807,45.070,45.000,0.00,0.08,-272.76,-272.81,-5,520,-942,19.1,3.7,-24.8,19.3,3.7,-24.6,5.73,1.93,-16.5,25.4
2015-12-01 01:08:00,0.0,1.93250,0.00073,405.938,0.058,0.1053,0.0016,139.998,45.000,31570.81165,1.93456,406.455,32.793,45.070,45.000,0.00,0.08,-272.75,-272.81,-6,520,-942,19.1,3.7,-24.7,19.3,3.8,-24.5,5.73,2.16,-16.5,25.4
2015-12-01 01:09:00,0.0,1.93266,0.00053,405.944,0.035,0.1063,0.0012,139.996,45.000,31570.35346,1.93462,406.462,32.792,45.070,45.000,0.00,0.08,-272.75,-272.81,-5,520,-942,19.1,3.8,-24.5,19.3,3.8,-24.3,5.73,1.97,-16.5,25.4
2015-12-01 01:10:00,0.0,1.93361,0.00056,405.984,0.038,0.1074,0.0019,139.999,45.000,31570.13295,1.93569,406.511,32.785,45.070,45.000,0.00,0.08,-272.74,-272.81,-4,520,-942,19.0,3.8,-24.4,19.3,3.9,-24.2,5.73,1.82,-16.4,25.4
2015-12-01 01:11:00,0.0,1.93203,0.00065,405.917,0.042,0.1071,0.0014,139.999,45.000,31571.38149,1.93411,406.441,32.772,45.070,45.000,0.00,0.09,-272.76,-272.80,-4,520,-942,19.0,3.9,-24.4,19.3,3.9,-24.2,5.73,2.08,-16.5,25.4
2015-12-01 01:12:00,0.0,1.93159,0.00035,405.900,0.027,0.1078,0.0013,139.997,45.000,31569.47246,1.93365,406.427,32.806,45.070,45.000,0.00,0.08,-272.75,-272.80,-5,520,-941,19.1,3.9,-24.3,19.3,3.9,-24.1,5.73,2.11,-16.5,25.4
2015-12-01 01:13:00,0.0,1.93177,0.00047,405.870,0.033,0.1106,0.0012,139.998,45.000,31569.38861,1.93384,406.411,32.810,45.070,45.000,0.00,0.08,-272.75,-272.81,-6,520,-942,19.0,3.9,-24.2,19.3,3.9,-24.0,5.73,1.84,-16.5,25.4
2015-12-01 01:14:00,0.0,1.93258,0.00048,405.893,0.046,0.1111,0.0019,139.997,45.000,31569.73082,1.93469,406.436,32.812,45.070,45.000,0.00,0.08,-272.75,-272.80,-5,520,-942,19.1,4.0,-24.1,19.3,4.0,-23.9,5.73,1.93,-16.5,25.4
2015-12-01 01:15:00,0.0,1.93224,0.00042,405.873,0.022,0.1136,0.0015,139.995,45.000,31568.13814,1.93442,406.428,32.820,45.070,45.000,0.00,0.08,-272.76,-272.80,-4,520,-942,19.1,4.0,-23.9,19.3,4.0,-23.7,5.73,2.16,-16.5,25.4
2015-12-01 01:16:00,0.0,1.93211,0.00035,405.839,0.034,0.1146,0.0016,139.999,45.000,31568.54178,1.93425,406.400,32.847,45.070,45.000,0.00,0.08,-272.75,-272.82,-5,520,-942,19.0,4.1,-23.8,19.3,4.1,-23.6,5.73,1.96,-16.5,25.4
2015-12-01 01:17:00,0.0,1.93232,0.00050,405.864,0.043,0.1163,0.0016,139.999,45.000,31570.19216,1.93456,406.432,32.875,45.070,45.000,0.00,0.09,-272.75,-272.82,-6,520,-942,19.0,4.1,-23.6,19.3,4.1,-23.5,5.73,1.82,-16.5,25.4
2015-12-01 01:18:00,0.0,1.93218,0.00039,405.854,0.029,0.1192,0.0022,139.999,45.000,31570.03600,1.93442,406.437,32.874,45.069,45.000,0.00,0.09,-272.75,-272.80,-5,520,-942,19.0,4.2,-23.4,19.2,4.2,-23.3,5.73,2.08,-16.5,25.4
2015-12-01 01:19:00,0.0,1.93225,0.00033,405.824,0.021,0.1196,0.0018,139.998,45.000,31570.09491,1.93452,406.409,32.861,45.070,45.000,0.00,0.08,-272.75,-272.80,-4,520,-942,19.1,4.3,-23.3,19.2,4.3,-23.1,5.73,2.11,-16.5,25.4
2015-12-01 01:20:00,0.0,1.93217,0.00038,405.818,0.034,0.1221,0.0016,139.999,45.000,31570.69765,1.93452,406.415,32.821,45.070,45.000,0.00,0.08,-272.75,-272.82,-4,520,-942,19.0,4.3,-23.2,19.2,4.3,-23.1,5.73,1.83,-16.5,25.4
2015-12-01 01:21:00,0.0,1.93437,0.00312,405.913,0.111,0.1230,0.0014,139.997,45.000,31567.73743,1.93638,406.507,32.815,45.070,45.000,0.00,0.09,-272.75,-272.81,-5,519,-942,19.1,4.4,-23.0,19.2,4.4,-22.9,5.73,1.92,-16.4,25.4
2015-12-01 01:22:00,0.0,1.93700,0.00391,405.995,0.154,0.1208,0.0019,140.001,45.000,31567.90776,1.93963,406.593,32.820,45.070,45.000,0.00,0.08,-272.76,-272.81,-5,520,-942,19.0,4.3,-23.2,19.2,4.3,-23.0,5.73,2.17,-16.5,25.4
2015-12-01 01:23:00,0.0,1.93444,0.00100,405.952,0.053,0.1184,0.0017,140.002,45.000,31569.28804,1.93665,406.529,32.863,45.070,45.000,0.00,0.08,-272.75,-272.81,-5,520,-942,19.0,4.2,-23.4,19.3,4.3,-23.1,5.73,1.96,-16.5,25.4
2015-12-01 01:24:00,0.0,1.93653,0.00243,406.042,0.085,0.1184,0.0014,139.996,45.000,31568.84973,1.93860,406.617,32.874,45.070,45.000,0.00,0.08,-272.75,-272.81,-4,520,-942,19.1,4.2,-23.5,19.2,4.2,-23.3,5.73,1.82,-16.4,25.4
2015-12-01 01:25:00,0.0,1.94288,0.00161,406.201,0.037,0.1161,0.0020,139.998,45.000,31569.51456,1.94495,406.768,32.875,45.070,45.000,0.00,0.09,-272.75,-272.81,-5,520,-942,19.0,4.1,-23.7,19.2,4.2,-23.4,5.73,2.09,-16.4,25.3
2015-12-01 01:26:00,0.0,1.94076,0.00200,406.154,0.042,0.1133,0.0018,139.997,45.000,31568.35775,1.94311,406.712,32.875,45.070,45.000,0.00,0.08,-272.75,-272.81,-6,520,-942,19.0,4.0,-23.9,19.2,4.1,-23.6,5.73,2.11,-16.5,25.4
2015-12-01 01:27:00,0.0,1.93857,0.00103,406.121,0.039,0.1126,0.0017,139.998,45.000,31567.73659,1.94068,406.671,32.875,45.070,45.000,0.00,0.08,-272.75,-272.82,-5,520,-942,19.0,4.0,-24.0,19.2,4.0,-23.7,5.73,1.83,-16.4,25.4
2015-12-01 01:28:00,0.0,1.94009,0.00076,406.138,0.037,0.1115,0.0017,139.999,45.000,31568.48101,1.94227,406.685,32.875,45.070,45.000,0.00,0.09,-272.75,-272.80,-4,520,-942,19.0,4.0,-24.0,19.2,4.0,-23.8,5.73,1.94,-16.5,25.4
2015-12-01 01:29:00,0.0,1.93877,0.00048,406.107,0.037,0.1112,0.0015,139.999,45.000,31568.71613,1.94092,406.650,32.875,45.070,45.000,0.00,0.08,-272.75,-272.81,-4,519,-942,19.0,4.0,-24.1,19.2,4.0,-23.8,5.73,2.16,-16.4,25.3
2015-12-01 01:30:00,0.0,1.93888,0.00041,406.113,0.033,0.1124,0.0023,140.000,45.000,31567.61117,1.94100,406.662,32.871,45.070,45.000,0.00,0.08,-272.76,-272.82,-5,519,-942,19.0,4.0,-24.0,19.2,4.0,-23.8,5.73,1.96,-16.5,25.4
2015-12-01 01:31:00,0.0,1.93835,0.00065,406.094,0.033,0.1115,0.0016,140.000,45.000,31568.49258,1.94050,406.641,32.862,45.070,45.000,0.00,0.09,-272.75,-272.80,-5,520,-942,19.0,4.0,-24.1,19.2,4.0,-23.8,5.73,1.82,-16.4,25.3
2015-12-01 01:32:00,0.0,1.93777,0.00055,406.059,0.031,0.1104,0.0019,139.999,45.000,31567.47117,1.93989,406.599,32.868,45.070,45.000,0.00,0.08,-272.76,-272.80,-4,520,-942,19.0,3.9,-24.2,19.2,4.0,-23.9,5.73,2.09,-16.4,25.4
2015-12-01 01:33:00,0.0,1.93679,0.00044,406.051,0.049,0.1094,0.0019,139.998,45.000,31569.10485,1.93893,406.587,32.875,45.070,45.000,0.00,0.08,-272.75,-272.80,-4,520,-942,19.0,3.9,-24.2,19.2,4.0,-24.0,5.73,2.10,-16.4,25.4
2015-12-01 01:34:00,0.0,1.93610,0.00084,405.991,0.032,0.1099,0.0017,140.000,45.000,31568.87604,1.93823,406.529,32.875,45.070,45.000,0.00,0.09,-272.75,-272.82,-5,519,-942,19.0,3.9,-24.2,19.2,4.0,-24.0,5.73,1.83,-16.4,25.3
2015-12-01 01:35:00,0.0,1.93428,0.00105,405.959,0.048,0.1118,0.0019,140.001,45.000,31571.00392,1.93647,406.507,32.873,45.070,45.000,0.00,0.09,-272.75,-272.80,-6,520,-942,19.0,4.0,-24.1,19.2,4.0,-23.9,5.73,1.95,-16.4,25.3
2015-12-01 01:36:00,0.0,1.93333,0.00068,405.914,0.046,0.1130,0.0015,139.999,45.000,31570.82084,1.93544,406.466,32.871,45.070,45.000,0.00,0.08,-272.75,-272.81,-5,520,-942,19.0,4.0,-23.9,19.2,4.0,-23.8,5.73,2.16,-16.4,25.3
2015-12-01 01:37:00,0.0,1.93485,0.00057,405.978,0.037,0.1152,0.0019,139.998,45.000,31568.45682,1.93700,406.541,32.872,45.070,45.000,0.00,0.08,-272.75,-272.82,-4,519,-942,19.0,4.1,-23.8,19.2,4.1,-23.6,5.73,1.95,-15.3,25.3
2015-12-01 01:38:00,0.0,1.93689,0.00051,406.031,0.046,0.1167,0.0012,140.000,45.000,31569.92193,1.93908,406.601,32.871,45.070,45.000,0.00,0.09,-272.75,-272.80,-5,519,-942,19.0,4.1,-23.7,19.2,4.1,-23.5,5.73,1.82,-15.4,25.3
2015-12-01 01:39:00,0.0,1.93711,0.00037,406.054,0.026,0.1139,0.0018,139.999,45.000,31571.40081,1.93928,406.611,32.875,45.070,45.000,0.00,0.09,-272.75,-272.80,-6,520,-942,19.0,4.1,-23.8,19.2,4.1,-23.5,5.73,2.10,-15.5,25.3
2015-12-01 01:40:00,0.0,1.93748,0.00037,406.094,0.024,0.1100,0.0018,139.999,45.000,31571.13458,1.93960,406.633,32.875,45.070,45.000,0.00,0.08,-272.75,-272.81,-5,520,-942,19.0,3.9,-24.2,19.2,4.0,-23.8,5.73,2.09,-15.6,25.3
2015-12-01 01:41:00,0.0,1.93675,0.00081,406.053,0.035,0.1084,0.0020,139.999,45.000,31571.15916,1.93882,406.582,32.879,45.070,45.000,0.00,0.09,-272.74,-272.81,-4,520,-942,19.0,3.9,-24.3,19.2,3.9,-24.0,5.73,1.82,-15.6,25.3
2015-12-01 01:42:00,0.0,1.93469,0.00118,405.963,0.063,0.1079,0.0017,139.999,45.001,31571.94037,1.93682,406.493,32.890,45.070,45.000,0.00,0.09,-272.75,-272.80,-4,519,-942,19.0,3.9,-24.4,19.2,3.9,-24.1,5.73,1.95,-15.7,25.3
2015-12-01 01:43:00,0.0,1.93259,0.00037,405.873,0.033,0.1077,0.0019,139.999,45.001,31572.00824,1.93474,406.401,32.917,45.070,45.000,0.00,0.08,-272.75,-272.81,-5,519,-942,19.0,3.9,-24.4,19.2,3.9,-24.2,5.73,2.17,-15.7,25.3
2015-12-01 01:44:00,0.0,1.93233,0.00047,405.844,0.029,0.1096,0.0019,139.998,45.001,31573.78795,1.93440,406.379,32.922,45.070,45.000,0.00,0.08,-272.75,-272.81,-5,520,-942,19.0,3.9,-24.3,19.2,3.9,-24.0,5.73,1.93,-15.8,25.3
2015-12-01 01:45:00,0.0,1.93226,0.00031,405.866,0.034,0.1133,0.0020,139.999,45.001,31575.20784,1.93443,406.419,32.907,45.070,45.000,0.00,0.09,-272.75,-272.81,-4,520,-942,19.0,4.0,-24.0,19.2,4.0,-23.9,5.73,1.83,-15.8,25.3